KLM789 SYCJ-EHAM

Flight info

Callsign KLM789
Flight time N/A
Altitude 35000
Route SALSU UL322 USABO DCT PIPUV DCT 13N055W DCT LEARP/M084F350 DCT 19N050W 24N045W 30N040W 35N035W 39N030W 45N020W DCT OMOKO DCT GUNSO DCT GAPLI/N0480F350 DCT GAJIT DCT ENHAQ M197 REDFA
Aircraft MD11/H-SDE1E2E3FGHIJ2J3J4J5M1RWXY/LB1D1

Departure

Time 2026-05-05 22:28
Airport Cheddi Jagan International Airport (SYCJ)

Arrival

Time N/A
Airport Amsterdam Airport Schiphol (EHAM)
Time Latitude Longitude Altitude Speed Heading
2026-05-05 21:39 6.50220 -58.25457 113 ft 0 kts 298°
2026-05-05 22:13 6.50213 -58.25444 110 ft 4 kts 306°
2026-05-05 22:13 6.50196 -58.25424 112 ft 4 kts 323°
2026-05-05 22:14 6.50174 -58.25409 111 ft 4 kts 321°
2026-05-05 22:14 6.50157 -58.25393 109 ft 4 kts 304°
2026-05-05 22:14 6.50148 -58.25375 110 ft 4 kts 260°
2026-05-05 22:14 6.50157 -58.25355 110 ft 4 kts 226°
2026-05-05 22:15 6.50172 -58.25340 110 ft 1 kts 224°
2026-05-05 22:15 6.50175 -58.25337 110 ft 0 kts 224°
2026-05-05 22:20 6.50167 -58.25344 112 ft 3 kts 224°
2026-05-05 22:20 6.50142 -58.25357 111 ft 5 kts 192°
2026-05-05 22:20 6.50104 -58.25352 110 ft 7 kts 178°
2026-05-05 22:20 6.50056 -58.25373 110 ft 9 kts 216°
2026-05-05 22:21 6.50004 -58.25424 109 ft 12 kts 225°
2026-05-05 22:21 6.49939 -58.25490 109 ft 15 kts 225°
2026-05-05 22:21 6.49862 -58.25566 112 ft 17 kts 223°
2026-05-05 22:21 6.49775 -58.25651 111 ft 18 kts 224°
2026-05-05 22:22 6.49720 -58.25707 109 ft 16 kts 226°
2026-05-05 22:22 6.49631 -58.25798 113 ft 12 kts 225°
2026-05-05 22:22 6.49594 -58.25834 109 ft 10 kts 224°
2026-05-05 22:22 6.49547 -58.25881 112 ft 10 kts 225°
2026-05-05 22:23 6.49487 -58.25942 109 ft 14 kts 225°
2026-05-05 22:23 6.49408 -58.26021 110 ft 18 kts 225°
2026-05-05 22:23 6.49341 -58.26088 110 ft 7 kts 225°
2026-05-05 22:23 6.49308 -58.26115 111 ft 5 kts 211°
2026-05-05 22:24 6.49280 -58.26122 110 ft 7 kts 182°
2026-05-05 22:24 6.49231 -58.26097 108 ft 10 kts 148°
2026-05-05 22:24 6.49170 -58.26101 111 ft 10 kts 208°
2026-05-05 22:24 6.49113 -58.26155 111 ft 12 kts 226°
2026-05-05 22:25 6.49046 -58.26223 111 ft 15 kts 225°
2026-05-05 22:25 6.48963 -58.26307 112 ft 19 kts 225°
2026-05-05 22:25 6.48870 -58.26400 111 ft 18 kts 225°
2026-05-05 22:25 6.48789 -58.26430 112 ft 11 kts 186°
2026-05-05 22:26 6.48751 -58.26454 113 ft 4 kts 251°
2026-05-05 22:26 6.48754 -58.26473 113 ft 3 kts 288°
2026-05-05 22:26 6.48777 -58.26489 113 ft 4 kts 343°
2026-05-05 22:26 6.48804 -58.26475 112 ft 5 kts 44°
2026-05-05 22:27 6.48829 -58.26446 114 ft 0 kts 45°
2026-05-05 22:27 6.48831 -58.26444 113 ft 3 kts 45°
2026-05-05 22:27 6.48908 -58.26366 113 ft 42 kts 45°
2026-05-05 22:27 6.49307 -58.25967 111 ft 117 kts 44°
2026-05-05 22:28 6.50032 -58.25246 115 ft 172 kts 44°
2026-05-05 22:28 6.50900 -58.24359 609 ft 176 kts 45°
2026-05-05 22:28 6.51758 -58.23507 1436 ft 172 kts 45°
2026-05-05 22:28 6.52631 -58.22730 2333 ft 167 kts 43°
2026-05-05 22:29 6.53535 -58.21943 2993 ft 174 kts 44°
2026-05-05 22:29 6.54477 -58.21124 3499 ft 192 kts 41°
2026-05-05 22:29 6.55806 -58.20502 3620 ft 231 kts 19°
2026-05-05 22:29 6.57464 -58.20116 3775 ft 259 kts 16°
2026-05-05 22:30 6.59269 -58.19712 4425 ft 266 kts 16°
2026-05-05 22:30 6.61107 -58.19279 4965 ft 272 kts 17°
2026-05-05 22:30 6.62952 -58.18817 5546 ft 271 kts 18°
2026-05-05 22:30 6.64794 -58.18334 6475 ft 276 kts 18°
2026-05-05 22:31 6.66660 -58.17831 7322 ft 280 kts 19°
2026-05-05 22:31 6.68526 -58.17317 8132 ft 284 kts 19°
2026-05-05 22:31 6.70445 -58.16781 8939 ft 288 kts 19°
2026-05-05 22:31 6.72392 -58.16233 9741 ft 293 kts 19°
2026-05-05 22:32 6.74383 -58.15669 10219 ft 308 kts 19°
2026-05-05 22:32 6.76536 -58.15053 10350 ft 335 kts 19°
2026-05-05 22:32 6.78869 -58.14384 10554 ft 358 kts 18°
2026-05-05 22:32 6.81286 -58.13695 11265 ft 364 kts 18°
2026-05-05 22:33 6.83736 -58.12999 12022 ft 368 kts 18°
2026-05-05 22:33 6.86212 -58.12294 12748 ft 373 kts 18°
2026-05-05 22:33 6.88730 -58.11576 13458 ft 378 kts 18°
2026-05-05 22:33 6.91276 -58.10850 14113 ft 382 kts 18°
2026-05-05 22:34 6.93848 -58.10115 14740 ft 386 kts 18°
2026-05-05 22:34 6.96443 -58.09373 15350 ft 389 kts 18°
2026-05-05 22:34 6.99061 -58.08625 15930 ft 393 kts 18°
2026-05-05 22:34 7.01706 -58.07869 16511 ft 397 kts 18°
2026-05-05 22:35 7.04370 -58.07106 17079 ft 401 kts 18°
2026-05-05 22:35 7.07065 -58.06335 17645 ft 404 kts 18°
2026-05-05 22:35 7.09784 -58.05557 18213 ft 408 kts 18°
2026-05-05 22:35 7.12528 -58.04772 18667 ft 412 kts 18°
2026-05-05 22:36 7.15293 -58.03980 19113 ft 416 kts 18°
2026-05-05 22:36 7.18089 -58.03180 19547 ft 419 kts 18°
2026-05-05 22:36 7.20906 -58.02373 19961 ft 423 kts 17°
2026-05-05 22:36 7.23756 -58.01557 20362 ft 427 kts 17°
2026-05-05 22:37 7.26623 -58.00736 20773 ft 431 kts 17°
2026-05-05 22:37 7.29522 -57.99906 21191 ft 435 kts 17°
2026-05-05 22:37 7.32447 -57.99068 21602 ft 439 kts 17°
2026-05-05 22:37 7.35399 -57.98222 22018 ft 443 kts 17°
2026-05-05 22:38 7.38378 -57.97368 22446 ft 447 kts 17°
2026-05-05 22:38 7.41388 -57.96505 22858 ft 452 kts 16°
2026-05-05 22:38 7.44428 -57.95633 23302 ft 456 kts 16°
2026-05-05 22:38 7.47495 -57.94754 23698 ft 461 kts 16°
2026-05-05 22:39 7.50589 -57.93867 24080 ft 464 kts 16°
2026-05-05 22:39 7.53709 -57.92972 24478 ft 468 kts 16°
2026-05-05 22:39 7.56808 -57.92084 24887 ft 470 kts 16°
2026-05-05 22:39 7.60009 -57.91166 25316 ft 474 kts 15°
2026-05-05 22:40 7.63146 -57.90266 25743 ft 476 kts 15°
2026-05-05 22:40 7.66384 -57.89325 26169 ft 480 kts 16°
2026-05-05 22:40 7.69547 -57.88364 26580 ft 483 kts 17°
2026-05-05 22:40 7.72761 -57.87360 26989 ft 486 kts 17°
2026-05-05 22:41 7.75999 -57.86339 27396 ft 489 kts 17°
2026-05-05 22:41 7.79256 -57.85309 27805 ft 492 kts 17°
2026-05-05 22:41 7.82534 -57.84274 28209 ft 495 kts 17°
2026-05-05 22:41 7.85832 -57.83235 28595 ft 498 kts 17°
2026-05-05 22:42 7.89145 -57.82193 28994 ft 501 kts 16°
2026-05-05 22:42 7.92490 -57.81142 29369 ft 504 kts 16°
2026-05-05 22:42 7.95848 -57.80088 29738 ft 507 kts 16°
2026-05-05 22:42 7.99224 -57.79028 30095 ft 510 kts 16°
2026-05-05 22:43 8.02620 -57.77962 30387 ft 512 kts 16°
2026-05-05 22:43 8.06024 -57.76892 30686 ft 514 kts 16°
2026-05-05 22:43 8.09447 -57.75816 30987 ft 515 kts 16°
2026-05-05 22:43 8.12859 -57.74742 31343 ft 514 kts 16°
2026-05-05 22:44 8.16267 -57.73668 31744 ft 512 kts 16°
2026-05-05 22:44 8.19663 -57.72595 32137 ft 511 kts 15°
2026-05-05 22:44 8.23049 -57.71526 32496 ft 509 kts 15°
2026-05-05 22:44 8.26424 -57.70461 32861 ft 508 kts 15°
2026-05-05 22:45 8.29793 -57.69397 33207 ft 506 kts 15°
2026-05-05 22:45 8.33154 -57.68336 33546 ft 505 kts 15°
2026-05-05 22:45 8.36497 -57.67280 33878 ft 504 kts 15°
2026-05-05 22:45 8.39839 -57.66225 34173 ft 502 kts 15°
2026-05-05 22:46 8.43164 -57.65175 34450 ft 500 kts 15°
2026-05-05 22:46 8.46484 -57.64126 34719 ft 499 kts 15°
2026-05-05 22:46 8.49798 -57.63079 34935 ft 499 kts 15°
2026-05-05 22:47 8.56417 -57.60987 35012 ft 500 kts 15°
2026-05-05 22:47 8.63061 -57.58887 35016 ft 501 kts 15°
2026-05-05 22:48 8.69713 -57.56783 35016 ft 501 kts 15°
2026-05-05 22:48 8.76361 -57.54680 35015 ft 501 kts 15°
2026-05-05 22:49 8.83002 -57.52577 35014 ft 500 kts 15°
2026-05-05 22:49 8.89646 -57.50473 35015 ft 500 kts 15°
2026-05-05 22:50 8.96234 -57.48172 35017 ft 502 kts 22°
2026-05-05 22:50 9.02464 -57.44951 35014 ft 504 kts 27°
2026-05-05 22:51 9.08576 -57.41472 35018 ft 504 kts 27°
2026-05-05 22:51 9.14714 -57.38038 35018 ft 504 kts 27°
2026-05-05 22:52 9.20877 -57.34654 35018 ft 504 kts 26°
2026-05-05 22:52 9.27047 -57.31282 35017 ft 504 kts 26°
2026-05-05 22:53 9.33217 -57.27906 35018 ft 504 kts 26°
2026-05-05 22:53 9.39388 -57.24526 35018 ft 504 kts 26°
2026-05-05 22:54 9.45558 -57.21144 35019 ft 504 kts 26°
2026-05-05 22:54 9.51734 -57.17757 35021 ft 505 kts 26°
2026-05-05 22:55 9.57907 -57.14371 35022 ft 505 kts 26°
2026-05-05 22:55 9.64081 -57.10983 35023 ft 505 kts 26°
2026-05-05 22:56 9.70258 -57.07591 35022 ft 504 kts 26°
2026-05-05 22:56 9.76428 -57.04198 35023 ft 504 kts 26°
2026-05-05 22:57 9.82594 -57.00808 35023 ft 504 kts 26°
2026-05-05 22:57 9.88762 -56.97417 35022 ft 504 kts 27°
2026-05-05 22:58 9.94883 -56.94051 35026 ft 504 kts 26°
2026-05-05 22:58 10.01037 -56.90665 35024 ft 503 kts 27°
2026-05-05 22:59 10.07193 -56.87276 35026 ft 503 kts 27°
2026-05-05 22:59 10.13343 -56.83890 35025 ft 503 kts 27°
2026-05-05 23:00 10.22563 -56.78811 35028 ft 502 kts 27°
2026-05-05 23:00 10.28702 -56.75426 35032 ft 502 kts 27°
2026-05-05 23:01 10.34841 -56.72040 35032 ft 502 kts 27°
2026-05-05 23:01 10.40972 -56.68657 35031 ft 501 kts 27°
2026-05-05 23:02 10.47094 -56.65274 35033 ft 501 kts 27°
2026-05-05 23:02 10.53211 -56.61892 35035 ft 501 kts 27°
2026-05-05 23:03 10.59328 -56.58512 35036 ft 500 kts 27°
2026-05-05 23:03 10.65399 -56.55156 35034 ft 500 kts 27°
2026-05-05 23:04 10.71543 -56.51759 35037 ft 499 kts 27°
2026-05-05 23:04 10.77602 -56.48406 35039 ft 499 kts 27°
2026-05-05 23:05 10.83686 -56.45033 35040 ft 498 kts 28°
2026-05-05 23:05 10.89597 -56.41351 35046 ft 498 kts 32°
2026-05-05 23:06 10.95369 -56.37443 35042 ft 498 kts 33°
2026-05-05 23:06 11.01134 -56.33531 35044 ft 497 kts 32°
2026-05-05 23:07 11.06905 -56.29648 35042 ft 497 kts 32°
2026-05-05 23:07 11.12676 -56.25779 35043 ft 497 kts 32°
2026-05-05 23:08 11.18451 -56.21907 35045 ft 496 kts 32°
2026-05-05 23:08 11.24216 -56.18039 35046 ft 496 kts 33°
2026-05-05 23:09 11.29970 -56.14175 35045 ft 496 kts 33°
2026-05-05 23:09 11.34754 -56.10960 35048 ft 495 kts 33°
2026-05-05 23:10 11.40503 -56.07096 35049 ft 495 kts 33°
2026-05-05 23:10 11.47173 -56.02610 35048 ft 494 kts 33°
2026-05-05 23:11 11.51983 -55.99375 35048 ft 494 kts 33°
2026-05-05 23:11 11.57714 -55.95513 35049 ft 494 kts 33°
2026-05-05 23:12 11.63449 -55.91646 35050 ft 494 kts 33°
2026-05-05 23:12 11.69174 -55.87787 35054 ft 494 kts 33°
2026-05-05 23:13 11.74902 -55.83925 35054 ft 493 kts 33°
2026-05-05 23:13 11.80587 -55.80091 35057 ft 493 kts 33°
2026-05-05 23:14 11.86313 -55.76227 35057 ft 493 kts 33°
2026-05-05 23:14 11.92034 -55.72364 35057 ft 493 kts 33°
2026-05-05 23:15 11.97758 -55.68497 35055 ft 493 kts 33°
2026-05-05 23:15 12.03480 -55.64630 35060 ft 493 kts 33°
2026-05-05 23:16 12.09204 -55.60759 35060 ft 493 kts 33°
2026-05-05 23:16 12.14925 -55.56889 35059 ft 493 kts 33°
2026-05-05 23:17 12.20649 -55.53014 35062 ft 493 kts 33°
2026-05-05 23:17 12.26367 -55.49139 35065 ft 493 kts 33°
2026-05-05 23:18 12.32082 -55.45260 35063 ft 493 kts 33°
2026-05-05 23:18 12.37801 -55.41380 35065 ft 493 kts 33°
2026-05-05 23:19 12.43519 -55.37501 35064 ft 493 kts 33°
2026-05-05 23:19 12.49236 -55.33621 35067 ft 493 kts 33°
2026-05-05 23:20 12.54949 -55.29741 35068 ft 493 kts 33°
2026-05-05 23:20 12.60659 -55.25861 35065 ft 493 kts 33°
2026-05-05 23:21 12.66334 -55.22003 35066 ft 493 kts 33°
2026-05-05 23:21 12.72039 -55.18123 35067 ft 492 kts 33°
2026-05-05 23:22 12.77747 -55.14237 35071 ft 492 kts 33°
2026-05-05 23:22 12.83451 -55.10354 35069 ft 492 kts 33°
2026-05-05 23:23 12.89146 -55.06473 35069 ft 492 kts 33°
2026-05-05 23:23 12.94838 -55.02591 35074 ft 491 kts 33°
2026-05-05 23:24 13.00524 -54.98706 35072 ft 491 kts 33°
2026-05-05 23:24 13.06209 -54.94824 35071 ft 491 kts 33°
2026-05-05 23:25 13.11886 -54.90946 35073 ft 491 kts 33°
2026-05-05 23:25 13.17570 -54.87063 35079 ft 490 kts 33°
2026-05-05 23:26 13.23244 -54.83184 35074 ft 490 kts 33°
2026-05-05 23:26 13.28910 -54.79309 35078 ft 489 kts 33°
2026-05-05 23:27 13.34552 -54.75389 35079 ft 490 kts 35°
2026-05-05 23:27 13.40000 -54.71187 35078 ft 490 kts 37°
2026-05-05 23:28 13.45384 -54.66886 35078 ft 490 kts 37°
2026-05-05 23:28 13.50770 -54.62600 35081 ft 490 kts 37°
2026-05-05 23:29 13.56132 -54.58357 35083 ft 490 kts 37°
2026-05-05 23:29 13.61567 -54.54060 35081 ft 490 kts 37°
2026-05-05 23:30 13.66928 -54.49819 35079 ft 489 kts 37°
2026-05-05 23:30 13.72321 -54.45550 35081 ft 489 kts 37°
2026-05-05 23:31 13.77714 -54.41278 35080 ft 489 kts 37°
2026-05-05 23:31 13.83108 -54.37001 35078 ft 489 kts 37°
2026-05-05 23:32 13.88498 -54.32727 35081 ft 489 kts 37°
2026-05-05 23:32 13.93889 -54.28448 35085 ft 489 kts 37°
2026-05-05 23:33 13.99276 -54.24170 35084 ft 489 kts 37°
2026-05-05 23:33 14.04655 -54.19888 35084 ft 489 kts 37°
2026-05-05 23:34 14.10029 -54.15610 35081 ft 488 kts 37°
2026-05-05 23:34 14.15405 -54.11332 35087 ft 488 kts 37°
2026-05-05 23:35 14.20778 -54.07055 35086 ft 488 kts 37°
2026-05-05 23:35 14.26146 -54.02779 35089 ft 487 kts 37°
2026-05-05 23:36 14.31508 -53.98505 35090 ft 487 kts 37°
2026-05-05 23:36 14.36869 -53.94229 35088 ft 487 kts 37°
2026-05-05 23:37 14.42228 -53.89953 35092 ft 487 kts 37°
2026-05-05 23:37 14.47584 -53.85676 35096 ft 487 kts 37°
2026-05-05 23:38 14.52936 -53.81399 35095 ft 487 kts 37°
2026-05-05 23:38 14.58285 -53.77123 35091 ft 486 kts 37°
2026-05-05 23:39 14.63637 -53.72840 35097 ft 486 kts 37°
2026-05-05 23:39 14.68945 -53.68586 35094 ft 486 kts 37°
2026-05-05 23:40 14.74319 -53.64274 35097 ft 486 kts 37°
2026-05-05 23:40 14.79665 -53.59987 35098 ft 486 kts 37°
2026-05-05 23:41 14.85011 -53.55698 35096 ft 486 kts 37°
2026-05-05 23:41 14.90312 -53.51443 35100 ft 486 kts 37°
2026-05-05 23:42 14.95653 -53.47154 35103 ft 486 kts 37°
2026-05-05 23:42 15.00983 -53.42871 35105 ft 485 kts 37°
2026-05-05 23:43 15.06312 -53.38585 35105 ft 485 kts 37°
2026-05-05 23:43 15.11646 -53.34293 35109 ft 485 kts 37°
2026-05-05 23:44 15.16974 -53.30002 35107 ft 485 kts 37°
2026-05-05 23:44 15.22298 -53.25712 35105 ft 485 kts 37°
2026-05-05 23:45 15.27616 -53.21424 35105 ft 484 kts 37°
2026-05-05 23:45 15.32926 -53.17138 35106 ft 484 kts 38°
2026-05-05 23:46 15.38235 -53.12843 35107 ft 484 kts 37°
2026-05-05 23:46 15.43540 -53.08553 35111 ft 484 kts 37°
2026-05-05 23:47 15.48841 -53.04267 35111 ft 483 kts 37°
2026-05-05 23:47 15.54147 -52.99975 35110 ft 483 kts 37°
2026-05-05 23:48 15.59436 -52.95694 35111 ft 483 kts 38°
2026-05-05 23:48 15.64727 -52.91407 35112 ft 482 kts 38°
2026-05-05 23:49 15.70019 -52.87118 35114 ft 482 kts 38°
2026-05-05 23:49 15.75301 -52.82833 35113 ft 482 kts 38°
2026-05-05 23:50 15.80581 -52.78547 35112 ft 482 kts 38°
2026-05-05 23:50 15.85857 -52.74261 35114 ft 481 kts 38°
2026-05-05 23:51 15.91132 -52.69973 35112 ft 481 kts 38°
2026-05-05 23:51 15.96366 -52.65716 35113 ft 481 kts 38°
2026-05-05 23:52 16.01627 -52.61427 35114 ft 481 kts 38°
2026-05-05 23:52 16.06882 -52.57139 35117 ft 480 kts 38°
2026-05-05 23:53 16.12174 -52.52824 35117 ft 480 kts 38°
2026-05-05 23:53 16.17394 -52.48566 35117 ft 480 kts 38°
2026-05-05 23:54 16.22643 -52.44282 35121 ft 480 kts 38°
2026-05-05 23:54 16.27888 -52.39998 35121 ft 479 kts 38°
2026-05-05 23:55 16.33133 -52.35712 35123 ft 479 kts 38°
2026-05-05 23:55 16.38371 -52.31427 35124 ft 479 kts 38°
2026-05-05 23:56 16.43604 -52.27144 35125 ft 479 kts 38°
2026-05-05 23:56 16.48838 -52.22856 35126 ft 478 kts 38°
2026-05-05 23:57 16.54071 -52.18568 35128 ft 478 kts 38°
2026-05-05 23:57 16.59297 -52.14281 35126 ft 478 kts 38°
2026-05-05 23:58 16.63640 -52.10715 35131 ft 478 kts 38°
2026-05-05 23:58 16.68863 -52.06415 35126 ft 478 kts 38°
2026-05-05 23:59 16.74087 -52.02116 35130 ft 478 kts 38°
2026-05-05 23:59 16.79312 -51.97817 35130 ft 478 kts 38°
2026-05-06 00:00 16.84536 -51.93518 35130 ft 478 kts 38°
2026-05-06 00:00 16.89759 -51.89216 35136 ft 478 kts 38°
2026-05-06 00:01 16.94982 -51.84911 35134 ft 478 kts 38°
2026-05-06 00:01 17.00204 -51.80603 35135 ft 478 kts 38°
2026-05-06 00:02 17.05428 -51.76291 35135 ft 478 kts 38°
2026-05-06 00:02 17.10646 -51.71980 35137 ft 478 kts 38°
2026-05-06 00:03 17.15867 -51.67663 35138 ft 479 kts 38°
2026-05-06 00:03 17.21092 -51.63340 35138 ft 479 kts 38°
2026-05-06 00:04 17.26311 -51.59019 35138 ft 478 kts 38°
2026-05-06 00:04 17.31526 -51.54693 35139 ft 478 kts 38°
2026-05-06 00:05 17.39342 -51.48199 35142 ft 478 kts 38°
2026-05-06 00:06 17.44556 -51.43870 35142 ft 478 kts 38°
2026-05-06 00:06 17.49740 -51.39564 35144 ft 478 kts 38°
2026-05-06 00:07 17.54950 -51.35232 35143 ft 478 kts 38°
2026-05-06 00:07 17.60164 -51.30895 35143 ft 478 kts 38°
2026-05-06 00:08 17.65375 -51.26556 35143 ft 478 kts 38°
2026-05-06 00:08 17.70584 -51.22215 35143 ft 478 kts 38°
2026-05-06 00:09 17.75796 -51.17869 35142 ft 479 kts 38°
2026-05-06 00:09 17.81007 -51.13520 35143 ft 479 kts 38°
2026-05-06 00:10 17.86220 -51.09166 35149 ft 479 kts 38°
2026-05-06 00:10 17.91428 -51.04813 35151 ft 479 kts 38°
2026-05-06 00:11 17.96631 -51.00455 35150 ft 479 kts 38°
2026-05-06 00:11 18.01837 -50.96088 35151 ft 479 kts 38°
2026-05-06 00:12 18.07006 -50.91753 35152 ft 479 kts 38°
2026-05-06 00:12 18.12215 -50.87386 35154 ft 479 kts 38°
2026-05-06 00:13 18.17418 -50.83014 35153 ft 479 kts 39°
2026-05-06 00:13 18.22385 -50.78354 35157 ft 479 kts 43°
2026-05-06 00:14 18.27185 -50.73500 35156 ft 479 kts 44°
2026-05-06 00:14 18.31987 -50.68633 35153 ft 479 kts 43°
2026-05-06 00:15 18.36806 -50.63784 35160 ft 479 kts 43°
2026-05-06 00:15 18.41634 -50.58939 35154 ft 479 kts 43°
2026-05-06 00:16 18.46457 -50.54096 35154 ft 479 kts 43°
2026-05-06 00:16 18.51279 -50.49249 35157 ft 479 kts 43°
2026-05-06 00:17 18.56104 -50.44394 35159 ft 479 kts 43°
2026-05-06 00:17 18.60925 -50.39540 35161 ft 479 kts 43°
2026-05-06 00:18 18.65739 -50.34688 35159 ft 479 kts 43°
2026-05-06 00:18 18.70554 -50.29830 35161 ft 479 kts 43°
2026-05-06 00:19 18.75368 -50.24971 35164 ft 479 kts 43°
2026-05-06 00:19 18.80177 -50.20107 35159 ft 479 kts 43°
2026-05-06 00:20 18.84982 -50.15235 35165 ft 479 kts 43°
2026-05-06 00:20 18.89784 -50.10370 35161 ft 479 kts 43°
2026-05-06 00:21 18.94594 -50.05497 35158 ft 479 kts 43°
2026-05-06 00:21 18.99401 -50.00632 35159 ft 479 kts 43°
2026-05-06 00:22 19.04295 -49.95856 35161 ft 479 kts 41°
2026-05-06 00:22 19.09231 -49.91132 35166 ft 478 kts 41°
2026-05-06 00:23 19.14163 -49.86410 35171 ft 478 kts 41°
2026-05-06 00:23 19.19093 -49.81674 35169 ft 478 kts 41°
2026-05-06 00:24 19.24013 -49.76939 35168 ft 479 kts 41°
2026-05-06 00:24 19.28942 -49.72191 35167 ft 478 kts 41°
2026-05-06 00:25 19.33860 -49.67449 35171 ft 479 kts 41°
2026-05-06 00:25 19.38749 -49.62732 35170 ft 479 kts 41°
2026-05-06 00:26 19.43671 -49.57980 35169 ft 479 kts 41°
2026-05-06 00:26 19.48593 -49.53223 35174 ft 479 kts 41°
2026-05-06 00:27 19.53513 -49.48464 35177 ft 479 kts 41°
2026-05-06 00:27 19.58434 -49.43699 35175 ft 479 kts 41°
2026-05-06 00:28 19.63360 -49.38920 35177 ft 480 kts 42°
2026-05-06 00:28 19.68279 -49.34136 35171 ft 480 kts 42°
2026-05-06 00:29 19.73199 -49.29356 35175 ft 480 kts 42°
2026-05-06 00:29 19.78123 -49.24572 35176 ft 480 kts 41°
2026-05-06 00:30 19.83040 -49.19791 35175 ft 480 kts 42°
2026-05-06 00:30 19.87962 -49.15001 35178 ft 480 kts 41°
2026-05-06 00:31 19.92878 -49.10212 35178 ft 479 kts 41°
2026-05-06 00:31 19.97789 -49.05425 35180 ft 479 kts 41°
2026-05-06 00:32 20.02702 -49.00631 35181 ft 479 kts 41°
2026-05-06 00:32 20.07609 -48.95838 35185 ft 479 kts 41°
2026-05-06 00:33 20.12518 -48.91039 35181 ft 479 kts 41°
2026-05-06 00:33 20.17424 -48.86239 35182 ft 479 kts 41°
2026-05-06 00:34 20.22329 -48.81434 35182 ft 479 kts 41°
2026-05-06 00:34 20.27194 -48.76653 35183 ft 479 kts 42°
2026-05-06 00:35 20.32093 -48.71837 35186 ft 479 kts 41°
2026-05-06 00:35 20.36993 -48.67023 35187 ft 479 kts 41°
2026-05-06 00:36 20.41892 -48.62209 35188 ft 479 kts 41°
2026-05-06 00:36 20.46792 -48.57389 35191 ft 479 kts 41°
2026-05-06 00:37 20.51686 -48.52570 35189 ft 479 kts 41°
2026-05-06 00:37 20.56581 -48.47746 35191 ft 479 kts 42°
2026-05-06 00:38 20.61476 -48.42917 35192 ft 479 kts 42°
2026-05-06 00:38 20.66370 -48.38085 35191 ft 479 kts 41°
2026-05-06 00:39 20.71265 -48.33247 35191 ft 479 kts 41°
2026-05-06 00:39 20.76164 -48.28402 35189 ft 480 kts 42°
2026-05-06 00:40 20.81056 -48.23558 35191 ft 480 kts 42°
2026-05-06 00:40 20.85914 -48.18737 35195 ft 479 kts 42°
2026-05-06 00:41 20.90797 -48.13879 35194 ft 479 kts 42°
2026-05-06 00:41 20.95678 -48.09027 35196 ft 479 kts 42°
2026-05-06 00:42 21.00567 -48.04168 35197 ft 479 kts 42°
2026-05-06 00:42 21.05454 -47.99307 35197 ft 479 kts 42°
2026-05-06 00:43 21.10335 -47.94448 35193 ft 479 kts 42°
2026-05-06 00:43 21.15216 -47.89583 35200 ft 479 kts 41°
2026-05-06 00:44 21.20097 -47.84714 35199 ft 479 kts 41°
2026-05-06 00:44 21.24977 -47.79842 35199 ft 479 kts 41°
2026-05-06 00:45 21.29857 -47.74965 35194 ft 479 kts 41°
2026-05-06 00:45 21.34735 -47.70085 35188 ft 480 kts 41°
2026-05-06 00:46 21.39608 -47.65205 35200 ft 479 kts 41°
2026-05-06 00:46 21.44483 -47.60318 35206 ft 480 kts 42°
2026-05-06 00:47 21.48532 -47.56245 35205 ft 480 kts 42°
2026-05-06 00:47 21.53398 -47.51347 35194 ft 480 kts 41°
2026-05-06 00:48 21.58269 -47.46447 35193 ft 479 kts 41°
2026-05-06 00:48 21.63134 -47.41553 35214 ft 479 kts 41°
2026-05-06 00:49 21.68003 -47.36650 35201 ft 479 kts 41°
2026-05-06 00:49 21.72863 -47.31751 35204 ft 479 kts 41°
2026-05-06 00:50 21.77721 -47.26850 35215 ft 479 kts 41°
2026-05-06 00:50 21.82577 -47.21945 35203 ft 479 kts 41°
2026-05-06 00:51 21.87433 -47.17037 35204 ft 479 kts 41°
2026-05-06 00:51 21.92286 -47.12126 35211 ft 479 kts 41°
2026-05-06 00:52 21.97134 -47.07214 35211 ft 479 kts 41°
2026-05-06 00:52 22.01983 -47.02298 35212 ft 479 kts 41°
2026-05-06 00:53 22.06828 -46.97377 35208 ft 479 kts 42°
2026-05-06 00:53 22.11666 -46.92446 35213 ft 478 kts 42°
2026-05-06 00:54 22.16502 -46.87520 35211 ft 478 kts 41°
2026-05-06 00:54 22.21345 -46.82589 35218 ft 478 kts 42°
2026-05-06 00:55 22.26186 -46.77656 35214 ft 479 kts 41°
2026-05-06 00:55 22.31027 -46.72719 35213 ft 479 kts 41°
2026-05-06 00:56 22.35832 -46.67813 35214 ft 479 kts 42°
2026-05-06 00:56 22.40672 -46.62866 35216 ft 479 kts 42°
2026-05-06 00:57 22.45510 -46.57916 35215 ft 479 kts 42°
2026-05-06 00:57 22.50344 -46.52965 35216 ft 479 kts 41°
2026-05-06 00:58 22.55183 -46.48005 35219 ft 479 kts 42°
2026-05-06 00:58 22.60015 -46.43046 35222 ft 479 kts 42°
2026-05-06 00:59 22.64843 -46.38086 35219 ft 479 kts 42°
2026-05-06 00:59 22.69664 -46.33117 35218 ft 479 kts 42°
2026-05-06 01:00 22.74489 -46.28137 35222 ft 479 kts 42°
2026-05-06 01:00 22.79313 -46.23161 35222 ft 479 kts 42°
2026-05-06 01:01 22.84135 -46.18187 35223 ft 479 kts 42°
2026-05-06 01:01 22.88959 -46.13207 35220 ft 479 kts 42°
2026-05-06 01:02 22.93776 -46.08228 35223 ft 479 kts 42°
2026-05-06 01:02 22.98594 -46.03243 35226 ft 478 kts 42°
2026-05-06 01:03 23.03411 -45.98254 35225 ft 478 kts 42°
2026-05-06 01:03 23.08218 -45.93269 35226 ft 478 kts 42°
2026-05-06 01:04 23.12996 -45.88310 35225 ft 478 kts 42°
2026-05-06 01:04 23.17802 -45.83317 35226 ft 478 kts 42°
2026-05-06 01:05 23.22606 -45.78320 35227 ft 478 kts 41°
2026-05-06 01:05 23.27733 -45.72978 35229 ft 478 kts 42°
2026-05-06 01:06 23.32519 -45.67971 35228 ft 478 kts 42°
2026-05-06 01:06 23.37315 -45.62958 35231 ft 478 kts 42°
2026-05-06 01:07 23.42109 -45.57949 35232 ft 478 kts 42°
2026-05-06 01:07 23.46898 -45.52942 35231 ft 477 kts 42°
2026-05-06 01:08 23.51691 -45.47924 35232 ft 478 kts 42°
2026-05-06 01:08 23.56480 -45.42906 35229 ft 477 kts 42°
2026-05-06 01:09 23.61258 -45.37894 35234 ft 477 kts 42°
2026-05-06 01:09 23.66040 -45.32872 35231 ft 477 kts 42°
2026-05-06 01:10 23.70819 -45.27848 35234 ft 477 kts 42°
2026-05-06 01:10 23.75593 -45.22824 35233 ft 477 kts 42°
2026-05-06 01:11 23.80421 -45.17929 35233 ft 476 kts 37°
2026-05-06 01:11 23.85701 -45.13598 35235 ft 474 kts 33°
2026-05-06 01:12 23.91096 -45.09454 35232 ft 474 kts 33°
2026-05-06 01:12 23.96479 -45.05276 35235 ft 474 kts 34°
2026-05-06 01:13 24.01840 -45.01064 35239 ft 474 kts 34°
2026-05-06 01:13 24.07192 -44.96841 35240 ft 474 kts 34°
2026-05-06 01:14 24.15216 -44.90502 35237 ft 474 kts 34°
2026-05-06 01:14 24.20559 -44.86277 35240 ft 474 kts 34°
2026-05-06 01:15 24.24997 -44.82765 35242 ft 474 kts 34°
2026-05-06 01:15 24.30340 -44.78532 35241 ft 473 kts 34°
2026-05-06 01:16 24.35674 -44.74301 35238 ft 473 kts 34°
2026-05-06 01:16 24.41010 -44.70065 35244 ft 473 kts 34°
2026-05-06 01:17 24.46345 -44.65824 35251 ft 473 kts 34°
2026-05-06 01:17 24.51666 -44.61578 35248 ft 473 kts 34°
2026-05-06 01:18 24.56993 -44.57325 35243 ft 473 kts 34°
2026-05-06 01:18 24.62321 -44.53074 35246 ft 473 kts 34°
2026-05-06 01:19 24.67646 -44.48824 35250 ft 473 kts 34°
2026-05-06 01:19 24.72976 -44.44565 35250 ft 473 kts 34°
2026-05-06 01:20 24.78299 -44.40307 35242 ft 473 kts 34°
2026-05-06 01:20 24.83621 -44.36045 35247 ft 473 kts 34°
2026-05-06 01:21 24.88909 -44.31806 35249 ft 473 kts 34°
2026-05-06 01:21 24.94230 -44.27535 35245 ft 473 kts 34°
2026-05-06 01:22 24.99549 -44.23261 35244 ft 473 kts 34°
2026-05-06 01:22 25.04868 -44.18983 35249 ft 473 kts 34°
2026-05-06 01:23 25.10180 -44.14706 35254 ft 473 kts 34°
2026-05-06 01:23 25.15496 -44.10417 35254 ft 473 kts 34°
2026-05-06 01:24 25.20802 -44.06120 35246 ft 473 kts 34°
2026-05-06 01:24 25.26116 -44.01820 35248 ft 473 kts 34°
2026-05-06 01:25 25.31423 -43.97526 35258 ft 473 kts 34°
2026-05-06 01:25 25.36733 -43.93227 35255 ft 473 kts 34°